Location: Auttagershofen
(48.1940°N, 10.0237°E)
Time: 20:23:26
(UTC+00:00)

SJ 16-02 - Pass Details

Date: 18 January 2026
Orbit: 582 x 594 km, 75.0° (Epoch: 18 February)

Event Time Altitude Azimuth Distance (km) Brightness Sun altitude
Rises 05:06:29 0° 167° (SSE) 2,791 5.0 -19.0°
Reaches altitude 10° 05:08:59 10° 154° (SSE) 1,897 4.3 -18.6°
Maximum altitude 05:12:24 24° 100° (E) 1,211 3.7 -18.1°
Drops below altitude 10° 05:15:51 10° 45° (NE) 1,912 4.3 -17.5°
Sets 05:18:22 0° 32° (NNE) 2,819 5.0 -17.1°
